| time (UTC) | temp F | wind direction | speed MPH | gust MPH | rain 1hr in | rain 24hr in | rain mn in | humidity % | barometer mb |
| 20260509214758 | 59 | 345 | 1.0 | 3.0 | 0.13 | 0.14 | 0.14 | 90 | 1008.2 |
| 20260509193548 | 69 | 248 | 0.0 | 1.0 | 0.00 | 0.00 | 0.00 | 70 | 1006.5 |
| 20260509192947 | 69 | 248 | 0.0 | 1.0 | 0.00 | 0.00 | 0.00 | 69 | 1006.5 |
| 20260509191747 | 69 | 203 | 0.0 | 2.0 | 0.00 | 0.00 | 0.00 | 71 | 1006.3 |
| 20260509190546 | 69 | 203 | 0.0 | 0.0 | 0.00 | 0.00 | 0.00 | 71 | 1006.2 |
| 20260509185946 | 69 | 203 | 0.0 | 0.0 | 0.00 | 0.00 | 0.00 | 74 | 1006.2 |
| 20260509184745 | 70 | 201 | 0.0 | 0.0 | 0.00 | 0.00 | 0.00 | 73 | 1006.2 |
| 20260509181143 | 73 | 109 | 0.0 | 0.0 | 0.00 | 0.00 | 0.00 | 66 | 1006.2 |
| 20260509180542 | 73 | 103 | 0.0 | 0.0 | 0.00 | 0.00 | 0.00 | 65 | 1006.1 |
| 20260509174741 | 74 | 103 | 0.0 | 0.0 | 0.00 | 0.00 | 0.00 | 62 | 1006.1 |
| 20260509174142 | 74 | 103 | 0.0 | 0.0 | 0.00 | 0.00 | 0.00 | 58 | 1006.1 |
| 20260509171740 | 74 | 103 | 1.0 | 3.0 | 0.00 | 0.00 | 0.00 | 57 | 1006.1 |
| 20260509171139 | 74 | 104 | 2.0 | 4.0 | 0.00 | 0.00 | 0.00 | 58 | 1006.1 |
| 20260509165939 | 75 | 108 | 3.0 | 7.0 | 0.00 | 0.00 | 0.00 | 54 | 1006.0 |
| 20260509165338 | 75 | 97 | 4.0 | 8.0 | 0.00 | 0.00 | 0.00 | 55 | 1005.9 |
| 20260509164138 | 76 | 106 | 1.0 | 3.0 | 0.00 | 0.00 | 0.00 | 53 | 1005.8 |
| 20260509162337 | 76 | 158 | 2.0 | 4.0 | 0.00 | 0.00 | 0.00 | 52 | 1006.0 |
| 20260509155935 | 76 | 121 | 3.0 | 8.0 | 0.00 | 0.00 | 0.00 | 52 | 1006.4 |
| 20260509154735 | 76 | 120 | 2.0 | 4.0 | 0.00 | 0.00 | 0.00 | 53 | 1006.5 |
| 20260509154134 | 76 | 90 | 3.0 | 4.0 | 0.00 | 0.00 | 0.00 | 52 | 1006.4 |
| 20260509153534 | 75 | 94 | 3.0 | 5.0 | 0.00 | 0.00 | 0.00 | 53 | 1006.4 |
| 20260509152934 | 75 | 119 | 4.0 | 6.0 | 0.00 | 0.00 | 0.00 | 52 | 1006.5 |
| 20260509145332 | 75 | 73 | 3.0 | 9.0 | 0.00 | 0.00 | 0.00 | 55 | 1006.9 |
| 20260509142930 | 76 | 117 | 2.0 | 4.0 | 0.00 | 0.00 | 0.00 | 54 | 1007.1 |
| 20260509142330 | 75 | 65 | 3.0 | 7.0 | 0.00 | 0.00 | 0.00 | 53 | 1007.1 |
| 20260509135929 | 75 | 82 | 2.0 | 6.0 | 0.00 | 0.00 | 0.00 | 55 | 1007.3 |
| 20260509135328 | 75 | 169 | 3.0 | 9.0 | 0.00 | 0.00 | 0.00 | 54 | 1007.3 |
| 20260509134728 | 75 | 77 | 4.0 | 9.0 | 0.00 | 0.00 | 0.00 | 55 | 1007.3 |
| 20260509132326 | 75 | 109 | 5.0 | 10.0 | 0.00 | 0.00 | 0.00 | 55 | 1007.6 |
| 20260509131126 | 75 | 100 | 6.0 | 12.0 | 0.00 | 0.00 | 0.00 | 55 | 1007.7 |
| 20260509125325 | 74 | 86 | 4.0 | 9.0 | 0.00 | 0.00 | 0.00 | 56 | 1007.8 |
| 20260509123524 | 74 | 130 | 5.0 | 9.0 | 0.00 | 0.00 | 0.00 | 55 | 1008.0 |
| 20260509121723 | 74 | 56 | 5.0 | 11.0 | 0.00 | 0.00 | 0.00 | 57 | 1008.0 |
| 20260509121122 | 74 | 84 | 6.0 | 11.0 | 0.00 | 0.00 | 0.00 | 55 | 1007.9 |
| 20260509115922 | 74 | 115 | 5.0 | 11.0 | 0.00 | 0.00 | 0.00 | 57 | 1008.1 |
| 20260509115320 | 74 | 115 | 5.0 | 10.0 | 0.00 | 0.00 | 0.00 | 57 | 1008.2 |
| 20260509114720 | 74 | 105 | 6.0 | 10.0 | 0.00 | 0.00 | 0.00 | 59 | 1008.2 |
| 20260509114120 | 73 | 76 | 5.0 | 12.0 | 0.00 | 0.00 | 0.00 | 58 | 1008.2 |
| 20260509113519 | 74 | 90 | 4.0 | 13.0 | 0.00 | 0.00 | 0.00 | 58 | 1008.0 |
| 20260509112920 | 73 | 68 | 5.0 | 10.0 | 0.00 | 0.00 | 0.00 | 59 | 1008.1 |
| 20260509112319 | 72 | 148 | 7.0 | 9.0 | 0.00 | 0.00 | 0.00 | 61 | 1008.1 |
| 20260509111719 | 72 | 84 | 7.0 | 14.0 | 0.00 | 0.00 | 0.00 | 61 | 1008.1 |
| 20260509111118 | 72 | 93 | 6.0 | 12.0 | 0.00 | 0.00 | 0.00 | 61 | 1008.2 |
| 20260509110518 | 71 | 137 | 6.0 | 11.0 | 0.00 | 0.00 | 0.00 | 61 | 1008.3 |
| 20260509105917 | 71 | 107 | 6.0 | 12.0 | 0.00 | 0.00 | 0.00 | 60 | 1008.4 |
| 20260509105317 | 71 | 92 | 6.0 | 13.0 | 0.00 | 0.00 | 0.00 | 61 | 1008.6 |
| 20260509104717 | 72 | 75 | 6.0 | 11.0 | 0.00 | 0.00 | 0.00 | 60 | 1008.6 |
| 20260509104116 | 71 | 99 | 7.0 | 12.0 | 0.00 | 0.00 | 0.00 | 61 | 1008.7 |
| 20260509103516 | 71 | 84 | 7.0 | 12.0 | 0.00 | 0.00 | 0.00 | 61 | 1008.8 |
| 20260509102915 | 71 | 57 | 6.0 | 11.0 | 0.00 | 0.00 | 0.00 | 62 | 1008.8 |
| 20260509102315 | 71 | 107 | 6.0 | 11.0 | 0.00 | 0.00 | 0.00 | 61 | 1008.9 |
| 20260509101715 | 71 | 115 | 6.0 | 10.0 | 0.00 | 0.00 | 0.00 | 60 | 1008.9 |
| 20260509101115 | 70 | 153 | 6.0 | 10.0 | 0.00 | 0.00 | 0.00 | 61 | 1009.0 |
| 20260509100515 | 70 | 99 | 5.0 | 12.0 | 0.00 | 0.00 | 0.00 | 62 | 1009.1 |
| 20260509095914 | 70 | 104 | 5.0 | 12.0 | 0.00 | 0.00 | 0.00 | 62 | 1009.2 |
| 20260509095314 | 70 | 79 | 4.0 | 10.0 | 0.00 | 0.00 | 0.00 | 63 | 1009.3 |
| 20260509094714 | 70 | 118 | 5.0 | 8.0 | 0.00 | 0.00 | 0.00 | 61 | 1009.4 |
| 20260509094113 | 69 | 78 | 5.0 | 10.0 | 0.00 | 0.00 | 0.00 | 61 | 1009.5 |
| 20260509093513 | 69 | 113 | 5.0 | 11.0 | 0.00 | 0.00 | 0.00 | 63 | 1009.5 |
| 20260509092912 | 69 | 126 | 5.0 | 10.0 | 0.00 | 0.00 | 0.00 | 62 | 1009.6 |
| 20260509092312 | 68 | 135 | 5.0 | 10.0 | 0.00 | 0.00 | 0.00 | 62 | 1009.5 |
| 20260509091712 | 68 | 101 | 4.0 | 10.0 | 0.00 | 0.00 | 0.00 | 63 | 1009.5 |
| 20260509091111 | 68 | 105 | 5.0 | 9.0 | 0.00 | 0.00 | 0.00 | 65 | 1009.5 |
| 20260509090511 | 67 | 82 | 5.0 | 10.0 | 0.00 | 0.00 | 0.00 | 66 | 1009.4 |
| 20260509085911 | 67 | 98 | 6.0 | 10.0 | 0.00 | 0.00 | 0.00 | 67 | 1009.3 |
| 20260509085310 | 66 | 50 | 6.0 | 12.0 | 0.00 | 0.00 | 0.00 | 67 | 1009.2 |
| 20260509084710 | 66 | 80 | 5.0 | 10.0 | 0.00 | 0.00 | 0.00 | 67 | 1009.1 |
| 20260509084109 | 66 | 71 | 4.0 | 9.0 | 0.00 | 0.00 | 0.00 | 66 | 1009.2 |
| 20260509083509 | 66 | 66 | 5.0 | 8.0 | 0.00 | 0.00 | 0.00 | 68 | 1009.2 |
| 20260509082909 | 66 | 74 | 4.0 | 11.0 | 0.00 | 0.00 | 0.00 | 66 | 1009.2 |
| 20260509082308 | 66 | 132 | 4.0 | 10.0 | 0.00 | 0.00 | 0.00 | 65 | 1009.3 |
| 20260509081708 | 66 | 77 | 4.0 | 8.0 | 0.00 | 0.00 | 0.00 | 67 | 1009.3 |
| 20260509081108 | 66 | 106 | 4.0 | 9.0 | 0.00 | 0.00 | 0.00 | 67 | 1009.3 |
| 20260509080507 | 65 | 120 | 5.0 | 9.0 | 0.00 | 0.00 | 0.00 | 68 | 1009.4 |
| 20260509075907 | 65 | 160 | 4.0 | 7.0 | 0.00 | 0.00 | 0.00 | 67 | 1009.4 |
| 20260509075307 | 65 | 112 | 4.0 | 8.0 | 0.00 | 0.00 | 0.00 | 68 | 1009.4 |
| 20260509074706 | 65 | 93 | 4.0 | 9.0 | 0.00 | 0.00 | 0.00 | 69 | 1009.5 |
| 20260509074106 | 64 | 107 | 4.0 | 9.0 | 0.00 | 0.00 | 0.00 | 68 | 1009.6 |
| 20260509073506 | 64 | 91 | 4.0 | 7.0 | 0.00 | 0.00 | 0.00 | 69 | 1009.6 |
| 20260509072905 | 64 | 101 | 4.0 | 9.0 | 0.00 | 0.00 | 0.00 | 70 | 1009.6 |
| 20260509072306 | 63 | 114 | 4.0 | 9.0 | 0.00 | 0.00 | 0.00 | 71 | 1009.7 |
| 20260509071705 | 63 | 99 | 4.0 | 8.0 | 0.00 | 0.00 | 0.00 | 71 | 1009.8 |
| 20260509071105 | 62 | 101 | 5.0 | 11.0 | 0.00 | 0.00 | 0.00 | 71 | 1009.9 |
| 20260509070506 | 62 | 106 | 4.0 | 10.0 | 0.00 | 0.00 | 0.00 | 71 | 1009.9 |
| 20260509065904 | 62 | 102 | 3.0 | 9.0 | 0.00 | 0.00 | 0.00 | 71 | 1009.9 |
| 20260509065306 | 62 | 109 | 3.0 | 8.0 | 0.00 | 0.00 | 0.00 | 73 | 1009.8 |
| 20260509064703 | 62 | 96 | 3.0 | 7.0 | 0.00 | 0.00 | 0.00 | 72 | 1009.8 |
| 20260509064103 | 62 | 95 | 2.0 | 9.0 | 0.00 | 0.00 | 0.00 | 72 | 1009.8 |
| 20260509063502 | 61 | 91 | 2.0 | 6.0 | 0.00 | 0.00 | 0.00 | 74 | 1009.8 |
| 20260509062902 | 60 | 99 | 3.0 | 7.0 | 0.00 | 0.00 | 0.00 | 74 | 1009.9 |
| 20260509062305 | 60 | 76 | 2.0 | 4.0 | 0.00 | 0.00 | 0.00 | 75 | 1010.0 |
| 20260509061701 | 60 | 91 | 2.0 | 8.0 | 0.00 | 0.00 | 0.00 | 75 | 1010.0 |
| 20260509061101 | 60 | 92 | 1.0 | 4.0 | 0.00 | 0.00 | 0.00 | 75 | 1009.9 |
| 20260509060500 | 60 | 86 | 1.0 | 2.0 | 0.00 | 0.00 | 0.00 | 77 | 1009.9 |
| 20260509055900 | 59 | 86 | 1.0 | 4.0 | 0.00 | 0.00 | 0.00 | 77 | 1009.9 |
| 20260509055300 | 59 | 76 | 1.0 | 3.0 | 0.00 | 0.00 | 0.00 | 78 | 1009.8 |
| 20260509054659 | 58 | 106 | 1.0 | 4.0 | 0.00 | 0.00 | 0.00 | 79 | 1009.8 |
| 20260509054059 | 58 | 88 | 1.0 | 4.0 | 0.00 | 0.00 | 0.00 | 80 | 1009.8 |
| 20260509053459 | 57 | 88 | 1.0 | 3.0 | 0.00 | 0.00 | 0.00 | 81 | 1009.7 |
| 20260509052859 | 57 | 90 | 1.0 | 3.0 | 0.00 | 0.00 | 0.00 | 82 | 1009.7 |
| 20260509052258 | 56 | 91 | 2.0 | 4.0 | 0.00 | 0.00 | 0.00 | 83 | 1009.6 |
| 20260509051701 | 56 | 78 | 2.0 | 3.0 | 0.00 | 0.00 | 0.00 | 84 | 1009.6 |
| 20260509051058 | 56 | 84 | 2.0 | 4.0 | 0.00 | 0.00 | 0.00 | 84 | 1009.6 |